Tracking 19247 objects as of 24-Sep-2018
HD Live streaming from Space Station
objects crossing your sky now

LEASAT 5

Track LEASAT 5 now!
LEASAT 5 is classified as:


NORAD ID: 20410
Int'l Code: 1990-002B
Perigee: 35,961.8 km
Apogee: 36,009.7 km
Inclination: 11.8 °
Period: 1,445.9 minutes
Semi major axis: 42356 km
RCS: 12.5892 m2 (large)
Launch date: January 9, 1990
Source: United States (US)
Launch site: AIR FORCE EASTERN TEST RANGE (AFETR)

Ultra High Frequency (UHF) satellite communications services to Australia; leased at end of use by U.S. Navy to Royal Australian Navy.
aabbcc
Your satellite tracking list
Your tracking list is empty




NASA's NSSDC Master Catalog

Two Line Element Set (TLE):
1 20410U 90002B   18266.46711007 -.00000069 +00000-0 +00000-0 0  9993
2 20410 011.7913 008.0349 0005650 329.2033 096.7103 00.99590744090308
Source of the keplerian elements: AFSPC